Tracking 29093 objects as of 15-Jul-2024
HD Live streaming from Space Station
objects crossing your sky now

STARLINK-3940

Track STARLINK-3940 now!
10-day predictions
STARLINK-3940 is classified as:


NORAD ID: 52540
Int'l Code: 2022-051H
Perigee: 546.0 km
Apogee: 547.7 km
Inclination: 53.2 °
Period: 95.4 minutes
Semi major axis: 6917 km
RCS: Unknown
Launch date: May 13, 2022
Source: United States (US)
Launch site: AIR FORCE WESTERN TEST RANGE (AFWTR)
Your satellite tracking list
Your tracking list is empty




NASA's NSSDC Master Catalog

Two Line Element Set (TLE):
1 52540U 22051H   24196.63839853  .00002848  00000-0  19690-3 0  9993
2 52540  53.2180 316.3688 0001272 100.1782 259.9353 15.08845905120401
Source of the keplerian elements: AFSPC